Zurück zum Katalog

PVSAT

AktivWissenschaftSSO
NORAD 52894·PAYLOAD·🇰🇷 South Korea

Gestartet Jun 21, 2022 von Naro Space Center

Loading…

Nächste Überflüge (nächste 24 Stunden)

TLE

AktuellSource: Space-Track

Epoche: Sep 14, 2026, 07:35 UTC

1 52894U 22065A   26257.31643182  .00000179  00000-0  47522-4 0  9994
2 52894  98.2422  36.0362 0010588  99.6790 260.5606 14.59586253225359

Verfolge PVSAT in Echtzeit mit AllMySat

Download on the App Store